DW9345 Weather Reports


time (UTC)temp
C
wind
direction
speed
KPH
gust
KPH
rain 1hr
cm
rain 24hr
cm
rain mn
cm
humidity
%
barometer
mb
20260906224546 35 121 6.4 12.9 0.00 0.00 0.00 49 1006.8
20260906223045 35 136 8.0 17.7 0.00 0.00 0.00 49 1006.8
20260906221544 35 165 8.0 19.3 0.00 0.00 0.00 50 1006.9
20260906220043 35 123 8.0 25.7 0.00 0.00 0.00 50 1006.9
20260906214547 35 165 6.4 14.5 0.00 0.00 0.00 50 1007.0
20260906213040 35 136 8.0 22.5 0.00 0.00 0.00 49 1007.2
20260906211539 36 134 3.2 8.0 0.00 0.00 0.00 49 1007.2
20260906210042 36 155 9.7 17.7 0.00 0.00 0.00 49 1007.5
20260906204537 36 148 11.3 17.7 0.00 0.00 0.00 49 1007.7
20260906203032 35 166 9.7 20.9 0.00 0.00 0.00 50 1007.8
20260906201530 35 103 8.0 17.7 0.00 0.00 0.00 52 1007.8
20260906200028 35 121 4.8 11.3 0.00 0.00 0.00 53 1008.0
20260906194527 35 116 3.2 16.1 0.00 0.00 0.00 55 1008.3
20260906193021 33 92 3.2 8.0 0.00 0.00 0.00 58 1008.3
20260906191520 33 27 1.6 4.8 0.00 0.00 0.00 58 1008.4
20260906190019 33 57 3.2 6.4 0.00 0.00 0.00 58 1008.7
20260906184521 33 14 4.8 8.0 0.00 0.00 0.00 59 1008.9
20260906183025 33 42 1.6 8.0 0.00 0.00 0.00 59 1009.1
20260906181543 33 82 1.6 6.4 0.00 0.00 0.00 59 1009.3
20260906180014 33 84 1.6 9.7 0.00 0.00 0.00 61 1009.5
20260906174515 33 103 3.2 8.0 0.00 0.00 0.00 61 1009.8
20260906173011 33 345 3.2 8.0 0.00 0.00 0.00 63 1010.0
20260906171508 33 94 3.2 9.7 0.00 0.00 0.00 64 1010.3
20260906170014 33 130 3.2 9.7 0.00 0.00 0.00 67 1010.4
20260906164559 32 34 4.8 9.7 0.00 0.00 0.00 68 1010.5
20260906163102 32 109 1.6 11.3 0.00 0.00 0.00 70 1010.6
20260906161556 31 350 3.2 12.9 0.00 0.00 0.00 72 1010.5
20260906160049 31 105 0.0 4.8 0.00 0.00 0.00 75 1010.6
20260906154549 30 105 3.2 6.4 0.00 0.00 0.00 75 1010.6
20260906153042 30 105 3.2 6.4 0.00 0.00 0.00 78 1010.6
20260906151537 29 105 3.2 4.8 0.00 0.00 0.00 80 1010.6
20260906150034 28 105 0.0 4.8 0.00 0.00 0.00 81 1010.5
20260906144530 27 105 0.0 3.2 0.00 0.00 0.00 81 1010.7
20260906143027 26 109 0.0 6.4 0.00 0.00 0.00 81 1010.6
20260906141526 25 126 0.0 0.0 0.00 0.00 0.00 81 1010.6
20260906140025 25 123 1.6 4.8 0.00 0.00 0.00 81 1010.5
20260906134524 23 122 0.0 3.2 0.00 0.00 0.00 81 1010.6
20260906133029 23 122 0.0 3.2 0.00 0.00 0.00 81 1010.7
20260906131521 22 124 0.0 0.0 0.00 0.00 0.00 79 1010.5
20260906130023 21 119 0.0 0.0 0.00 0.00 0.00 79 1010.3
20260906124517 21 116 0.0 0.0 0.00 0.00 0.00 78 1010.3
20260906123021 21 114 0.0 0.0 0.00 0.00 0.00 77 1010.0
20260906121512 21 117 0.0 0.0 0.00 0.00 0.00 77 1009.8
20260906120010 22 119 0.0 0.0 0.00 0.00 0.00 76 1009.6
20260906114524 22 121 0.0 0.0 0.00 0.00 0.00 76 1009.4
20260906113007 22 117 0.0 0.0 0.00 0.00 0.00 76 1009.3
20260906111517 22 119 0.0 0.0 0.00 0.00 0.00 75 1009.2
20260906110006 22 116 0.0 0.0 0.00 0.00 0.00 75 1009.0
20260906104506 22 115 0.0 0.0 0.00 0.00 0.00 75 1009.0
20260906103002 22 117 0.0 0.0 0.00 0.00 0.00 74 1008.9
20260906101604 22 115 0.0 0.0 0.00 0.00 0.00 74 1008.8
20260906100059 23 114 0.0 0.0 0.00 0.00 0.00 73 1008.7
20260906094557 23 111 0.0 0.0 0.00 0.00 0.00 73 1008.6
20260906093057 23 111 0.0 0.0 0.00 0.00 0.00 73 1008.6
20260906091555 23 111 0.0 1.6 0.00 0.00 0.00 72 1008.6
20260906090053 23 111 0.0 0.0 0.00 0.00 0.00 72 1008.7
20260906084553 23 111 0.0 0.0 0.00 0.00 0.00 71 1008.7
20260906083053 23 111 0.0 0.0 0.00 0.00 0.00 70 1008.5
20260906081554 23 111 0.0 0.0 0.00 0.00 0.00 70 1008.6
20260906080048 24 111 0.0 1.6 0.00 0.00 0.00 69 1008.6
20260906074546 24 111 0.0 0.0 0.00 0.00 0.00 69 1008.9
20260906073045 25 112 0.0 0.0 0.00 0.00 0.00 68 1008.8
20260906071540 25 119 0.0 0.0 0.00 0.00 0.00 68 1009.0
20260906070039 25 116 0.0 0.0 0.00 0.00 0.00 67 1009.2
20260906064538 26 113 0.0 0.0 0.00 0.00 0.00 67 1009.1
20260906063034 26 112 0.0 1.6 0.00 0.00 0.00 66 1009.4
20260906061532 26 112 0.0 0.0 0.00 0.00 0.00 66 1009.6
20260906060036 26 112 0.0 1.6 0.00 0.00 0.00 66 1009.7
20260906054530 27 112 1.6 4.8 0.00 0.00 0.00 66 1009.6
20260906053031 26 112 1.6 4.8 0.00 0.00 0.00 65 1009.4
20260906051524 26 113 0.0 1.6 0.00 0.00 0.00 62 1009.4
20260906050020 27 112 0.0 0.0 0.00 0.00 0.00 62 1009.7
20260906044520 27 111 0.0 1.6 0.00 0.00 0.00 61 1009.5
20260906043020 28 113 0.0 0.0 0.00 0.00 0.00 61 1009.4
20260906041526 28 114 0.0 3.2 0.00 0.00 0.00 61 1009.5
20260906040028 28 123 0.0 1.6 0.00 0.00 0.00 61 1009.4
20260906034527 29 127 0.0 4.8 0.00 0.00 0.00 61 1009.3
20260906033018 29 119 1.6 6.4 0.00 0.00 0.00 60 1009.2
20260906031531 30 117 3.2 6.4 0.00 0.00 0.00 59 1008.9
20260906030016 30 121 3.2 9.7 0.00 0.00 0.00 58 1008.9
20260906024516 31 119 4.8 12.9 0.00 0.00 0.00 57 1008.8
20260906023014 31 114 6.4 14.5 0.00 0.00 0.00 55 1008.5
20260906021515 31 116 4.8 12.9 0.00 0.00 0.00 53 1008.4
20260906020013 31 151 1.6 8.0 0.00 0.00 0.00 49 1008.1
20260906014519 31 151 1.6 8.0 0.00 0.00 0.00 48 1007.8
20260906013012 32 150 0.0 1.6 0.00 0.00 0.00 46 1007.6
20260906011511 32 149 0.0 8.0 0.00 0.00 0.00 46 1007.2
20260906010012 33 155 1.6 6.4 0.00 0.00 0.00 46 1007.2
20260906004510 33 142 0.0 6.4 0.00 0.00 0.00 45 1007.1
20260906003010 34 143 0.0 4.8 0.00 0.00 0.00 44 1007.0
20260906001508 35 147 3.2 8.0 0.00 0.00 0.00 44 1007.0
20260906000006 35 141 1.6 11.3 0.00 0.00 0.00 44 1007.0
20260905234506 35 111 1.6 14.5 0.00 0.00 0.00 44 1006.9
20260905233006 35 119 3.2 14.5 0.00 0.00 0.00 44 1006.9
20260905231506 35 130 6.4 12.9 0.00 0.00 0.00 44 1006.9
20260905230005 35 128 4.8 12.9 0.00 0.00 0.00 44 1006.9